CAW398 FIMP-FAOR

Flight info

Callsign CAW398
Flight time N/A
Altitude 34000
Route SOBAT2A SOBAT UA401 SDG UG653 TU/N0453F360 UG653 SUNIR UT444 ETIVI DCT IMKAN UT446 IBGUB
Aircraft B738/M-SDE2E3FGHIRWXY/LB1

Departure

Time 2026-05-06 15:17
Airport Sir Seewoosagur Ramgoolam International Airport (FIMP)

Arrival

Time N/A
Airport O.R. Tambo International Airport (FAOR)
Time Latitude Longitude Altitude Speed Heading
2026-05-06 14:56 -20.43101 57.67700 173 ft 0 kts 207°
2026-05-06 15:08 -20.43096 57.67703 173 ft 2 kts 206°
2026-05-06 15:08 -20.43081 57.67711 173 ft 2 kts 208°
2026-05-06 15:08 -20.43067 57.67720 173 ft 2 kts 211°
2026-05-06 15:09 -20.43053 57.67729 173 ft 2 kts 214°
2026-05-06 15:09 -20.43039 57.67740 173 ft 2 kts 220°
2026-05-06 15:09 -20.43028 57.67752 172 ft 2 kts 240°
2026-05-06 15:09 -20.43024 57.67769 172 ft 2 kts 288°
2026-05-06 15:10 -20.43027 57.67776 172 ft 0 kts 296°
2026-05-06 15:11 -20.43027 57.67775 172 ft 4 kts 296°
2026-05-06 15:11 -20.43024 57.67769 172 ft 0 kts 297°
2026-05-06 15:12 -20.43022 57.67765 172 ft 2 kts 297°
2026-05-06 15:12 -20.43003 57.67728 172 ft 9 kts 297°
2026-05-06 15:12 -20.42967 57.67660 173 ft 12 kts 313°
2026-05-06 15:12 -20.42878 57.67604 172 ft 18 kts 332°
2026-05-06 15:13 -20.42791 57.67538 173 ft 12 kts 322°
2026-05-06 15:13 -20.42728 57.67489 175 ft 9 kts 329°
2026-05-06 15:13 -20.42674 57.67467 177 ft 0 kts 342°
2026-05-06 15:14 -20.42641 57.67455 178 ft 12 kts 342°
2026-05-06 15:14 -20.42558 57.67380 180 ft 19 kts 300°
2026-05-06 15:14 -20.42499 57.67255 186 ft 18 kts 295°
2026-05-06 15:15 -20.42442 57.67139 186 ft 17 kts 296°
2026-05-06 15:15 -20.42435 57.67040 197 ft 13 kts 267°
2026-05-06 15:15 -20.42422 57.66948 196 ft 13 kts 296°
2026-05-06 15:15 -20.42355 57.66923 193 ft 12 kts 40°
2026-05-06 15:16 -20.42372 57.66999 194 ft 12 kts 129°
2026-05-06 15:16 -20.42394 57.67038 195 ft 0 kts 117°
2026-05-06 15:16 -20.42428 57.67106 187 ft 39 kts 118°
2026-05-06 15:16 -20.42664 57.67600 173 ft 109 kts 117°
2026-05-06 15:17 -20.43100 57.68517 164 ft 165 kts 115°
2026-05-06 15:17 -20.43629 57.69654 716 ft 173 kts 115°
2026-05-06 15:17 -20.44198 57.70788 1451 ft 174 kts 116°
2026-05-06 15:17 -20.44747 57.71947 2124 ft 183 kts 115°
2026-05-06 15:18 -20.45459 57.73194 2364 ft 212 kts 135°
2026-05-06 15:18 -20.45858 57.73532 2427 ft 221 kts 148°